CT2IRK-11 Weather Reports


Display with metric or nautical units.
time (UTC)temp
F
wind
direction
speed
MPH
gust
MPH
rain 1hr
in
rain 24hr
in
rain mn
in
humidity
%
barometer
mb
20260906052005 67 181 2.0 5.0 0.00 0.00 0.00 99 1011.8
20260906051005 67 193 4.0 6.0 0.00 0.00 0.00 99 1011.6
20260906050004 67 199 1.0 3.0 0.00 0.00 0.00 99 1011.5
20260906045005 66 187 2.0 2.0 0.00 0.00 0.00 99 1011.5
20260906044005 66 169 0.0 3.0 0.00 0.00 0.00 97 1011.5
20260906043005 67 248 0.0 0.0 0.00 0.00 0.00 97 1011.6
20260906042005 67 225 0.0 0.0 0.00 0.00 0.00 97 1011.6
20260906041005 67 202 0.0 0.0 0.00 0.00 0.00 97 1011.6
20260906040005 67 225 0.0 0.0 0.00 0.00 0.00 96 1011.7
20260906035005 68 225 0.0 0.0 0.00 0.00 0.00 95 1011.7
20260906034006 68 10 0.0 0.0 0.00 0.00 0.00 94 1011.7
20260906033006 68 22 0.0 1.0 0.00 0.00 0.00 96 1011.8
20260906031005 69 45 0.0 0.0 0.00 0.00 0.00 96 1012.1
20260906030006 69 11 0.0 0.0 0.00 0.00 0.00 95 1012.1
20260906025005 70 282 0.0 0.0 0.00 0.00 0.00 91 1012.3
20260906024005 70 215 0.0 0.0 0.00 0.00 0.00 89 1012.3
20260906023005 71 260 0.0 0.0 0.00 0.00 0.00 88 1012.1
20260906022005 72 90 0.0 0.0 0.00 0.00 0.00 85 1012.2
20260906020006 72 45 0.0 0.0 0.00 0.00 0.00 86 1012.3
20260906015005 72 45 0.0 0.0 0.00 0.00 0.00 86 1012.5
20260906014005 72 45 0.0 0.0 0.00 0.00 0.00 86 1012.5
20260906012005 73 327 0.0 0.0 0.00 0.00 0.00 83 1012.6
20260906005005 73 199 0.0 0.0 0.00 0.00 0.00 82 1012.5
20260906004005 73 202 0.0 0.0 0.00 0.00 0.00 83 1012.5
20260906003005 73 210 0.0 0.0 0.00 0.00 0.00 83 1012.5
20260906001005 74 224 0.0 0.0 0.00 0.00 0.00 81 1012.6
20260906000004 74 248 0.0 0.0 0.00 0.00 0.00 79 1012.4
20260905235005 75 186 0.0 0.0 0.00 0.00 0.00 79 1012.3
20260905234005 74 157 0.0 0.0 0.00 0.00 0.00 81 1012.3
20260905232005 74 185 0.0 1.0 0.00 0.00 0.00 81 1012.1
20260905231005 74 194 0.0 0.0 0.00 0.00 0.00 81 1012.0
20260905230006 75 178 0.0 1.0 0.00 0.00 0.00 80 1012.0
20260905225005 74 213 0.0 1.0 0.00 0.00 0.00 80 1011.8
20260905223004 76 218 1.0 6.0 0.00 0.00 0.00 77 1011.8
20260905222005 76 204 6.0 7.0 0.00 0.00 0.00 73 1011.7
20260905221005 78 191 0.0 0.0 0.00 0.00 0.00 64 1011.7
20260905220004 79 205 0.0 1.0 0.00 0.00 0.00 61 1011.7
20260905215005 79 216 0.0 1.0 0.00 0.00 0.00 59 1011.6
20260905214004 80 202 0.0 6.0 0.00 0.00 0.00 57 1011.6
20260905213004 81 180 0.0 6.0 0.00 0.00 0.00 56 1011.5
20260905212005 82 191 1.0 7.0 0.00 0.00 0.00 55 1011.6
20260905211005 82 183 2.0 10.0 0.00 0.00 0.00 56 1011.4
20260905210004 82 203 6.0 8.0 0.00 0.00 0.00 58 1011.3
20260905205005 82 217 5.0 7.0 0.00 0.00 0.00 62 1011.0
20260905204005 82 201 1.0 3.0 0.00 0.00 0.00 63 1011.0
20260905203005 82 176 0.0 6.0 0.00 0.00 0.00 63 1010.8
20260905202005 83 174 6.0 7.0 0.00 0.00 0.00 61 1010.6
20260905200004 85 202 0.0 9.0 0.00 0.00 0.00 58 1010.1
20260905195004 86 172 6.0 9.0 0.00 0.00 0.00 57 1009.7
20260905194004 86 199 3.0 8.0 0.00 0.00 0.00 55 1009.7
20260905193005 88 180 4.0 8.0 0.00 0.00 0.00 53 1009.6
20260905191005 91 138 6.0 7.0 0.00 0.00 0.00 43 1009.3
20260905190005 93 160 3.0 6.0 0.00 0.00 0.00 39 1009.0
20260905185005 94 193 0.0 0.0 0.00 0.00 0.00 38 1008.9
20260905184004 94 167 0.0 5.0 0.00 0.00 0.00 37 1008.9
20260905183005 95 166 1.0 6.0 0.00 0.00 0.00 37 1008.9
20260905182005 97 202 4.0 6.0 0.00 0.00 0.00 36 1008.9
20260905181004 98 176 5.0 6.0 0.00 0.00 0.00 33 1008.8
20260905180005 100 209 2.0 7.0 0.00 0.00 0.00 30 1008.9
20260905175005 101 185 1.0 7.0 0.00 0.00 0.00 28 1008.8
20260905174005 102 230 5.0 7.0 0.00 0.00 0.00 27 1008.8
20260905172005 102 226 5.0 10.0 0.00 0.00 0.00 26 1008.7
20260905170004 102 270 5.0 7.0 0.00 0.00 0.00 27 1008.6
20260905165006 103 233 7.0 9.0 0.00 0.00 0.00 26 1008.6
20260905164004 104 248 1.0 7.0 0.00 0.00 0.00 26 1008.6
20260905162005 103 270 7.0 8.0 0.00 0.00 0.00 26 1008.7
20260905160004 104 254 3.0 7.0 0.00 0.00 0.00 25 1008.7
20260905155015 104 270 4.0 7.0 0.00 0.00 0.00 25 1008.7
20260905154006 105 276 4.0 7.0 0.00 0.00 0.00 24 1008.7
20260905153010 105 283 5.0 8.0 0.00 0.00 0.00 24 1008.9
20260905152006 105 233 3.0 7.0 0.00 0.00 0.00 25 1009.0
20260905151006 103 262 1.0 8.0 0.00 0.00 0.00 26 1009.0
20260905150007 103 249 1.0 8.0 0.00 0.00 0.00 26 1009.2
20260905145006 103 252 1.0 7.0 0.00 0.00 0.00 27 1009.2
20260905144006 103 275 2.0 8.0 0.00 0.00 0.00 27 1009.2
20260905143006 104 270 0.0 7.0 0.00 0.00 0.00 27 1009.4
20260905141006 103 251 0.0 6.0 0.00 0.00 0.00 28 1009.5
20260905140005 102 283 0.0 6.0 0.00 0.00 0.00 29 1009.7
20260905134006 103 299 0.0 1.0 0.00 0.00 0.00 29 1009.8
20260905133006 100 270 3.0 9.0 0.00 0.00 0.00 33 1009.9
20260905132005 99 346 1.0 7.0 0.00 0.00 0.00 34 1009.8
20260905131006 99 289 0.0 0.0 0.00 0.00 0.00 35 1009.9
20260905130006 99 17 0.0 0.0 0.00 0.00 0.00 35 1010.0
20260905123006 99 267 1.0 6.0 0.00 0.00 0.00 36 1010.3
20260905122006 98 292 3.0 8.0 0.00 0.00 0.00 35 1010.4
20260905121006 99 343 0.0 0.0 0.00 0.00 0.00 36 1010.7
20260905115006 93 338 0.0 0.0 0.00 0.00 0.00 41 1010.8
20260905114006 93 62 0.0 0.0 0.00 0.00 0.00 42 1010.8
20260905113006 91 325 0.0 0.0 0.00 0.00 0.00 45 1011.0
20260905112006 90 5 0.0 6.0 0.00 0.00 0.00 45 1011.0
20260905110007 88 45 3.0 6.0 0.00 0.00 0.00 47 1011.2
20260905105006 90 33 0.0 9.0 0.00 0.00 0.00 43 1011.3
20260905104005 88 28 6.0 8.0 0.00 0.00 0.00 45 1011.3
20260905103005 87 50 6.0 8.0 0.00 0.00 0.00 48 1011.5
20260905102006 86 37 6.0 8.0 0.00 0.00 0.00 51 1011.6
20260905101005 86 22 5.0 6.0 0.00 0.00 0.00 54 1011.4
20260905095006 85 309 0.0 0.0 0.00 0.00 0.00 57 1011.5
20260905094006 84 63 0.0 0.0 0.00 0.00 0.00 59 1011.5
20260905091006 80 279 0.0 0.0 0.00 0.00 0.00 65 1011.4
20260905090005 79 338 0.0 0.0 0.00 0.00 0.00 67 1011.3
20260905085006 78 352 0.0 0.0 0.00 0.00 0.00 71 1011.2
20260905084006 76 22 0.0 0.0 0.00 0.00 0.00 71 1011.2
20260905083005 77 28 0.0 0.0 0.00 0.00 0.00 69 1011.1
20260905082005 75 22 0.0 0.0 0.00 0.00 0.00 72 1011.0
20260905081005 75 5 0.0 0.0 0.00 0.00 0.00 73 1011.1
20260905075006 74 32 0.0 0.0 0.00 0.00 0.00 75 1011.2
20260905074006 72 13 0.0 0.0 0.00 0.00 0.00 78 1011.2
20260905073008 71 338 0.0 0.0 0.00 0.00 0.00 83 1011.1
20260905072006 70 273 0.0 0.0 0.00 0.00 0.00 84 1011.1
20260905070007 68 38 0.0 0.0 0.00 0.00 0.00 90 1010.6
20260905065005 67 25 0.0 0.0 0.00 0.00 0.00 90 1010.6
20260905064006 67 87 0.0 0.0 0.00 0.00 0.00 91 1010.6
20260905063005 67 68 0.0 0.0 0.00 0.00 0.00 90 1010.5
20260905061007 67 125 0.0 0.0 0.00 0.00 0.00 89 1010.3
20260905060006 69 200 0.0 0.0 0.00 0.00 0.00 88 1010.1
20260905055007 68 175 0.0 1.0 0.00 0.00 0.00 88 1010.2
20260905054005 67 163 0.0 3.0 0.00 0.00 0.00 89 1010.2
20260905053006 67 172 0.0 1.0 0.00 0.00 0.00 89 1010.2